[[{"header":{"parameterUnit":"m.s-1","parameterCategory":1,"la1":30.2991,"la2":30.254,"lo1":-89.0895,"lo2":-89.0444,"dy":0.0017,"dx":0.0017,"nx":28,"ny":28,"refTime":"2025-02-25T03:00:00:Z","depth":0,"parameterNumber":2,"parameterNumberName":"U-component_of_WINDS"},"data":[0,0,0,0,0,0,0,0,0,0,0,0,0,0,0,0,0,0,0,0,0,0,0,0,0,0,0,0,0,0,0,0,0,0,0,0,0,0,0,0,0,0,0,0,0,0,0,0,0,0,0,0,0,0,0,0,0,0,-0.2741,-0.2741,0,-0.2751,-0.2751,-0.2751,-0.2727,-0.2726,-0.2726,-0.2725,-0.2738,-0.2739,-0.274,0,0,0,0,0,0,0,0,0,0,0,0,0,-0.2703,-0.2704,-0.2741,-0.2741,-0.2741,-0.2751,-0.2751,-0.2751,-0.2727,-0.2726,-0.2726,-0.2725,-0.2738,-0.2739,-0.274,0,0,0,0,0,0,0,0,0,0,0,0,0,-0.2717,-0.2704,-0.274,-0.273,-0.2729,-0.2751,-0.2751,-0.2751,-0.2728,-0.2726,-0.2725,-0.2724,-0.2737,-0.2739,-0.274,-0.2773,0,0,-0.2745,-0.2746,0,0,0,0,0,0,0,0,-0.2716,-0.2718,-0.2732,-0.2731,-0.273,-0.2736,-0.2742,-0.2758,-0.2728,-0.2728,-0.2725,-0.2724,-0.2739,-0.274,-0.2744,-0.2773,-0.2774,-0.2745,-0.2746,-0.2747,-0.2747,0,0,0,0,0,0,0,-0.2715,-0.2718,-0.2745,-0.2732,-0.2731,-0.2726,-0.2726,-0.2745,-0.274,-0.2728,-0.2727,-0.2728,-0.2738,-0.2743,-0.2745,-0.2774,-0.2745,-0.2747,-0.2748,-0.2748,-0.283,-0.2831,0,0,0,0,0,0,-0.2715,-0.2717,-0.2744,-0.2745,-0.272,-0.2727,-0.2728,-0.2736,-0.2739,-0.2739,-0.2729,-0.2727,-0.2741,-0.2743,-0.2745,-0.2784,-0.2747,-0.2748,-0.2749,-0.2829,-0.2831,-0.2832,0,0,0,0,0,0,-0.2714,-0.2718,-0.2744,-0.273,-0.2733,-0.2729,-0.2738,-0.2736,-0.2741,-0.274,-0.2739,-0.2735,-0.274,-0.2743,-0.2766,-0.2784,-0.2749,-0.275,-0.2828,-0.283,-0.2831,-0.2861,0,0,0,0,0,0,-0.2713,-0.2718,-0.273,-0.2731,-0.2734,-0.2764,-0.2739,-0.2737,-0.2744,-0.2741,-0.2745,-0.2745,-0.2739,-0.2764,-0.2767,-0.2785,-0.2752,-0.2826,-0.2828,-0.2831,-0.2859,-0.2864,-0.2869,0,0,0,0,0,-0.2712,-0.2738,-0.273,-0.2734,-0.2749,-0.2765,-0.2767,-0.276,-0.2745,-0.2758,-0.2757,-0.2745,-0.2781,-0.2766,-0.277,-0.2789,-0.2825,-0.2828,-0.283,-0.2857,-0.2863,-0.2868,0,0,0,0,0,0,-0.2741,-0.2738,-0.273,-0.2757,-0.2761,-0.2761,-0.2777,-0.2766,-0.2776,-0.2773,-0.2764,-0.2765,-0.279,-0.2791,-0.2775,-0.2821,-0.2801,-0.2804,-0.2819,-0.2825,-0.283,-0.283,-0.2753,0,0,0,0,0,-0.275,-0.2762,-0.276,-0.2784,-0.2787,-0.2781,-0.2788,-0.2782,-0.2786,-0.2789,-0.2789,-0.2795,-0.2807,-0.2816,-0.2827,-0.2858,-0.2859,-0.2873,-0.2878,-0.2882,-0.2886,-0.2903,-0.2909,-0.2841,-0.2841,-0.2841,0,0,-0.2769,-0.277,-0.2779,-0.279,-0.2793,-0.2807,-0.2783,-0.2799,-0.281,-0.2791,-0.2813,-0.2814,-0.2819,-0.2847,-0.2859,-0.2849,-0.2904,-0.2885,-0.2889,-0.289,-0.2906,-0.2913,-0.2918,-0.2843,-0.2843,-0.2842,0,0,-0.2813,-0.2814,-0.2834,-0.2837,-0.2841,-0.2837,-0.2842,-0.2843,-0.2843,-0.2864,-0.285,-0.2863,-0.2885,-0.2889,-0.2895,-0.2938,-0.2928,-0.2942,-0.2968,-0.2985,-0.299,-0.2995,-0.3011,-0.3017,-0.2946,-0.2946,-0.2946,0,-0.2837,-0.2857,-0.2846,-0.2863,-0.2869,-0.2851,-0.2872,-0.2875,-0.2883,-0.2888,-0.2876,-0.2903,-0.2905,-0.2934,-0.2944,-0.2949,-0.2955,-0.2943,-0.299,-0.2995,-0.2999,-0.3015,-0.3021,-0.2947,-0.2947,-0.2947,-0.2947,0,-0.2887,-0.2901,-0.2917,-0.2925,-0.2932,-0.2951,-0.2943,-0.2952,-0.2944,-0.2942,-0.2964,-0.2966,-0.2978,-0.2983,-0.2976,-0.3011,-0.3004,-0.2991,-0.2971,-0.3007,-0.3022,-0.3028,-0.295,-0.2949,-0.2949,-0.2948,0,0,-0.2951,-0.295,-0.2957,-0.296,-0.2962,-0.2973,-0.2991,-0.3001,-0.301,-0.3015,-0.3031,-0.3049,-0.3037,-0.3043,-0.3036,-0.305,-0.3085,-0.3035,-0.3035,-0.3046,-0.3124,-0.3135,-0.3142,-0.3078,-0.3079,-0.308,-0.3124,0,-0.2995,-0.3025,-0.3015,-0.3046,-0.3059,-0.3042,-0.3057,-0.3061,-0.3059,-0.307,-0.3067,-0.3081,-0.3063,-0.3067,-0.308,-0.3078,-0.3101,-0.3075,-0.3093,-0.3094,-0.3094,-0.315,-0.3162,-0.3204,-0.313,-0.3131,-0.3131,0,-0.305,-0.3057,-0.3089,-0.3089,-0.3094,-0.3108,-0.3117,-0.3128,-0.3131,-0.3128,-0.3134,-0.3124,-0.3143,-0.3121,-0.3146,-0.3128,-0.3135,-0.3135,-0.3137,-0.314,-0.3116,-0.3156,-0.3217,-0.3224,-0.314,-0.3139,-0.3139,0,-0.3095,-0.3112,-0.3134,-0.3136,-0.3136,-0.3147,-0.3148,-0.315,-0.3156,-0.3164,-0.3168,-0.3178,-0.3184,-0.3192,-0.3185,-0.3169,-0.3212,-0.3189,-0.3211,-0.3211,-0.3222,-0.3222,-0.3287,-0.3224,-0.3224,-0.3224,-0.3224,0,-0.3146,-0.3167,-0.3154,-0.3167,-0.319,-0.3178,-0.3201,-0.3199,-0.3201,-0.3215,-0.32,-0.3213,-0.3202,-0.3214,-0.3208,-0.3231,-0.3233,-0.3232,-0.3231,-0.3235,-0.3235,-0.324,-0.3238,-0.3225,-0.3225,-0.3225,-0.3224,0,-0.3201,-0.3193,-0.3215,-0.3212,-0.3212,-0.3229,-0.3227,-0.324,-0.3236,-0.3253,-0.3256,-0.325,-0.3263,-0.3256,-0.3271,-0.3267,-0.3296,-0.329,-0.3295,-0.3294,-0.3316,-0.3315,-0.3389,-0.3398,-0.3327,-0.3328,-0.3329,0,-0.3235,-0.325,-0.3249,-0.3256,-0.3257,-0.3269,-0.3276,-0.3264,-0.3272,-0.3276,-0.3289,-0.33,-0.331,-0.3332,-0.3329,-0.334,-0.3335,-0.336,-0.3337,-0.334,-0.3337,-0.3337,-0.3339,-0.3365,-0.3366,-0.3367,-0.3367,0,-0.3297,-0.3291,-0.3301,-0.3308,-0.3316,-0.3322,-0.3327,-0.3334,-0.3322,-0.3331,-0.3344,-0.3351,-0.3365,-0.3377,-0.3386,-0.3387,-0.3376,-0.3374,-0.338,-0.3385,-0.3388,-0.3388,-0.3309,-0.3373,-0.3372,-0.3372,-0.3372,-0.3371,-0.3343,-0.3356,-0.3357,-0.3368,-0.3369,-0.3374,-0.3386,-0.3382,-0.3392,-0.3402,-0.3394,-0.341,-0.3413,-0.3423,-0.3426,-0.3439,-0.3429,-0.3437,-0.3439,-0.3442,-0.3446,-0.3384,-0.344,-0.344,-0.344,-0.3439,-0.3439,0,-0.3405,-0.3404,-0.3414,-0.3421,-0.3429,-0.3415,-0.3419,-0.3428,-0.3442,-0.3444,-0.3453,-0.3468,-0.348,-0.3477,-0.3487,-0.3498,-0.3493,-0.3501,-0.3501,-0.3502,-0.3453,-0.3448,-0.3505,-0.3505,-0.3505,-0.3505,-0.3505,-0.3505,-0.3439,-0.346,-0.3454,-0.3476,-0.3475,-0.349,-0.3494,-0.3498,-0.35,-0.3517,-0.3526,-0.3524,-0.3525,-0.3535,-0.3545,-0.3544,-0.3549,-0.356,-0.3557,-0.3512,-0.3505,-0.3499,-0.3494,-0.3561,-0.3561,-0.3605,-0.3605,-0.3606]},{"header":{"parameterUnit":"m.s-1","parameterCategory":1,"la1":30.2991,"la2":30.254,"lo1":-89.0895,"lo2":-89.0444,"dy":0.0017,"dx":0.0017,"nx":28,"ny":28,"refTime":"2025-02-25T03:00:00:Z","depth":0,"parameterNumber":3,"parameterNumberName":"V-component_of_WINDS"},"data":[0,0,0,0,0,0,0,0,0,0,0,0,0,0,0,0,0,0,0,0,0,0,0,0,0,0,0,0,0,0,0,0,0,0,0,0,0,0,0,0,0,0,0,0,0,0,0,0,0,0,0,0,0,0,0,0,0,0,-0.5813,-0.5814,0,-0.5914,-0.5915,-0.5916,-0.598,-0.598,-0.5981,-0.5981,-0.6081,-0.6083,-0.6085,0,0,0,0,0,0,0,0,0,0,0,0,0,-0.5673,-0.5675,-0.5813,-0.5814,-0.5815,-0.5914,-0.5915,-0.5916,-0.598,-0.598,-0.5981,-0.5981,-0.608,-0.6082,-0.6085,0,0,0,0,0,0,0,0,0,0,0,0,0,-0.5749,-0.5676,-0.5813,-0.5859,-0.5864,-0.5913,-0.5915,-0.5917,-0.598,-0.598,-0.5981,-0.5982,-0.6079,-0.6082,-0.6086,-0.6095,0,0,-0.6096,-0.6098,0,0,0,0,0,0,0,0,-0.5745,-0.5754,-0.5851,-0.5856,-0.5862,-0.5935,-0.5902,-0.5976,-0.598,-0.5936,-0.5981,-0.5982,-0.6031,-0.6039,-0.6056,-0.61,-0.6104,-0.6096,-0.6098,-0.61,-0.6101,0,0,0,0,0,0,0,-0.574,-0.575,-0.5853,-0.5852,-0.5859,-0.5874,-0.5885,-0.5916,-0.5979,-0.594,-0.5945,-0.5956,-0.6034,-0.6053,-0.6059,-0.6106,-0.6096,-0.6099,-0.6101,-0.6103,-0.6162,-0.6162,0,0,0,0,0,0,-0.5727,-0.5746,-0.585,-0.5856,-0.5804,-0.5876,-0.5889,-0.5911,-0.5979,-0.599,-0.5955,-0.5958,-0.6047,-0.6055,-0.6063,-0.6079,-0.61,-0.6103,-0.6105,-0.6163,-0.6162,-0.6162,0,0,0,0,0,0,-0.5724,-0.5736,-0.5845,-0.5802,-0.5817,-0.5878,-0.5902,-0.5913,-0.5931,-0.5991,-0.6002,-0.5963,-0.6047,-0.6058,-0.6087,-0.6083,-0.6105,-0.6108,-0.6163,-0.6163,-0.6162,-0.6111,0,0,0,0,0,0,-0.572,-0.5734,-0.5739,-0.5802,-0.5819,-0.5869,-0.5902,-0.5914,-0.5937,-0.5942,-0.6001,-0.6011,-0.6049,-0.6082,-0.609,-0.6088,-0.611,-0.6164,-0.6163,-0.6162,-0.6113,-0.6109,-0.6105,0,0,0,0,0,-0.5715,-0.572,-0.5739,-0.5751,-0.5827,-0.5868,-0.5878,-0.5923,-0.5937,-0.5942,-0.598,-0.6009,-0.6082,-0.6084,-0.6095,-0.6093,-0.6164,-0.6163,-0.6162,-0.6115,-0.611,-0.6105,0,0,0,0,0,0,-0.5654,-0.5729,-0.5751,-0.5777,-0.5816,-0.5879,-0.5887,-0.5915,-0.595,-0.5953,-0.6006,-0.6019,-0.6042,-0.6071,-0.6072,-0.6107,-0.6127,-0.6128,-0.6087,-0.6082,-0.6078,-0.6071,-0.6113,0,0,0,0,0,-0.5644,-0.5673,-0.5736,-0.5753,-0.5772,-0.5826,-0.5845,-0.5877,-0.5919,-0.5935,-0.5975,-0.6014,-0.6046,-0.6066,-0.6098,-0.6118,-0.6131,-0.6122,-0.6118,-0.6114,-0.6114,-0.6127,-0.6123,-0.6158,-0.6158,-0.6158,0,0,-0.5623,-0.5668,-0.5682,-0.5742,-0.5776,-0.5803,-0.5839,-0.5867,-0.5887,-0.5939,-0.5969,-0.6,-0.6047,-0.6071,-0.6084,-0.6095,-0.6107,-0.6112,-0.6109,-0.6111,-0.6125,-0.6122,-0.6119,-0.6158,-0.6158,-0.6158,0,0,-0.56,-0.5636,-0.5654,-0.5688,-0.5739,-0.5775,-0.578,-0.5839,-0.5862,-0.5893,-0.5933,-0.5957,-0.6011,-0.6043,-0.6066,-0.6055,-0.6082,-0.6063,-0.6041,-0.6053,-0.605,-0.6048,-0.6044,-0.6042,-0.6063,-0.6063,-0.6063,0,-0.5567,-0.5611,-0.566,-0.5686,-0.5711,-0.576,-0.5778,-0.5808,-0.5867,-0.5882,-0.5895,-0.5964,-0.5998,-0.6031,-0.6029,-0.6045,-0.6052,-0.6057,-0.6047,-0.6045,-0.6044,-0.604,-0.6039,-0.6061,-0.6061,-0.6061,-0.6062,0,-0.5568,-0.5598,-0.5607,-0.5664,-0.569,-0.5712,-0.5763,-0.5783,-0.5812,-0.5846,-0.5878,-0.5921,-0.5964,-0.5974,-0.6002,-0.6011,-0.6016,-0.6037,-0.6058,-0.6037,-0.6035,-0.6034,-0.6057,-0.6058,-0.6059,-0.6059,0,0,-0.5509,-0.5594,-0.5596,-0.5623,-0.5683,-0.5707,-0.5731,-0.5774,-0.579,-0.5828,-0.585,-0.5894,-0.5914,-0.594,-0.5972,-0.5982,-0.5971,-0.6002,-0.6004,-0.5995,-0.5983,-0.5968,-0.5965,-0.5989,-0.5989,-0.5989,-0.5979,0,-0.5495,-0.5542,-0.5586,-0.5617,-0.5645,-0.5692,-0.5713,-0.5752,-0.5785,-0.5813,-0.5848,-0.5879,-0.5903,-0.5919,-0.5931,-0.5969,-0.5969,-0.5971,-0.6009,-0.601,-0.5996,-0.5964,-0.5948,-0.5937,-0.5979,-0.5979,-0.5979,0,-0.5484,-0.5522,-0.5556,-0.5614,-0.5628,-0.5646,-0.5689,-0.5715,-0.576,-0.5783,-0.5813,-0.5846,-0.5873,-0.5891,-0.5929,-0.5929,-0.5947,-0.5968,-0.5968,-0.5974,-0.5993,-0.5969,-0.5934,-0.5932,-0.5978,-0.5978,-0.5978,0,-0.5438,-0.5497,-0.5526,-0.5547,-0.5615,-0.5627,-0.5656,-0.5701,-0.5724,-0.5762,-0.5777,-0.5816,-0.5838,-0.5867,-0.591,-0.5919,-0.5942,-0.5964,-0.5962,-0.5961,-0.5965,-0.5964,-0.5932,-0.5976,-0.5976,-0.5976,-0.5976,0,-0.5417,-0.5436,-0.5506,-0.5523,-0.5545,-0.5596,-0.5617,-0.5649,-0.5689,-0.5713,-0.5756,-0.5777,-0.5833,-0.586,-0.5894,-0.592,-0.5929,-0.5948,-0.5956,-0.5944,-0.5942,-0.5957,-0.5959,-0.5975,-0.5975,-0.5976,-0.5976,0,-0.5369,-0.5417,-0.5451,-0.5514,-0.553,-0.5543,-0.5597,-0.5615,-0.565,-0.568,-0.5689,-0.5744,-0.5779,-0.5825,-0.5874,-0.5896,-0.5918,-0.5931,-0.5903,-0.5908,-0.5904,-0.5903,-0.5881,-0.588,-0.5923,-0.5923,-0.5922,0,-0.5353,-0.5369,-0.5434,-0.5453,-0.5481,-0.5512,-0.5536,-0.5587,-0.561,-0.5663,-0.5674,-0.5712,-0.5746,-0.5799,-0.5842,-0.588,-0.5894,-0.5884,-0.59,-0.5888,-0.5895,-0.5893,-0.5895,-0.588,-0.5879,-0.5878,-0.5878,0,-0.5319,-0.5342,-0.5376,-0.5419,-0.5447,-0.5482,-0.5519,-0.5532,-0.559,-0.5614,-0.5651,-0.5677,-0.5727,-0.5765,-0.5808,-0.5837,-0.5867,-0.5873,-0.5874,-0.5862,-0.5845,-0.5854,-0.5892,-0.5873,-0.5873,-0.5874,-0.5874,-0.5874,-0.5287,-0.5304,-0.5352,-0.5389,-0.5422,-0.5456,-0.5476,-0.5515,-0.5547,-0.5593,-0.562,-0.5656,-0.57,-0.5762,-0.5789,-0.5817,-0.5829,-0.5831,-0.5831,-0.5831,-0.5827,-0.584,-0.5825,-0.5825,-0.5825,-0.5825,-0.5825,0,-0.5256,-0.529,-0.5323,-0.5374,-0.5403,-0.543,-0.5473,-0.5494,-0.5526,-0.5565,-0.5597,-0.564,-0.5676,-0.5723,-0.5762,-0.5776,-0.579,-0.5784,-0.5784,-0.579,-0.5814,-0.5809,-0.5772,-0.5772,-0.5772,-0.5772,-0.5772,-0.5772,-0.5243,-0.5273,-0.5301,-0.5348,-0.5381,-0.5418,-0.544,-0.5471,-0.5503,-0.5548,-0.5579,-0.561,-0.5653,-0.5696,-0.573,-0.5743,-0.5755,-0.5745,-0.5762,-0.5783,-0.5788,-0.5793,-0.5788,-0.5747,-0.5747,-0.5735,-0.5735,-0.5735]}]]